Satellite-Ground Cal/Val Site Overpasses Predictions

Prediction of Satellite NPP Overpassing Cal/Val Site: Antarctic Dome C

Ground Cal/Val Site Location: Latitude: -75.10, Longitude: 123.35; Satellite-Ground Site NADIR distance within 100 km.

Table of predicted overpasses for the next 14.0 days since TLE Epoch: 4/10/2015
Interval Starting Time Ending Time Minimum Distance Time Minimum Distance (km)
1 04/11/2015 07:36:47 04/11/2015 07:37:17 04/11/2015 07:37:02 2.64
2 04/14/2015 15:00:09 04/14/2015 15:00:38 04/14/2015 15:00:23 16.17
3 04/15/2015 14:41:27 04/15/2015 14:41:39 04/15/2015 14:41:33 90.79
4 04/16/2015 07:42:56 04/16/2015 07:43:23 04/16/2015 07:43:10 38.39
5 04/17/2015 07:24:09 04/17/2015 07:24:29 04/17/2015 07:24:19 71.89
6 04/19/2015 15:06:19 04/19/2015 15:06:44 04/19/2015 15:06:32 52.91
7 04/20/2015 14:47:28 04/20/2015 14:47:52 04/20/2015 14:47:40 56.24
8 04/21/2015 07:49:08 04/21/2015 07:49:28 04/21/2015 07:49:18 73.25
9 04/22/2015 07:30:13 04/22/2015 07:30:41 04/22/2015 07:30:27 34.85


NCC Satellite Cal/Val Overpasses Prediction Service
